Home > Weather > Pelotas > Past weeks

Flag for Brazil Past Weather in Pelotas, Rio Grande do Sul, Brazil — Yesterday and Last 2 Weeks

Now
63 °F

Clear.


Feels Like: 63 °F
Forecast: 61 / 64 °F
Wind: 8 mph from Southeast

Location: Porto Alegre Aero-Porto

Current Time: May 29, 2016 at 6:53:45 AM

Latest Report: May 29, 2016 at 6:00 AM


Visibility: 10 mi

Pressure: 30.04 "Hg

Humidity: 94%

Dew Point: 61 °F

Location of PelotasLocation

Past Weather in Pelotas — Graph

°F

Pelotas Temperature Yesterday

Maximum temperature yesterday: 72 °F (at 2:00 PM)
Minimum temperature yesterday: 54 °F (at 12:00 AM)
Average temperature yesterday: 62 °F

High & Low Weather Summary for the Past Weeks

 TemperatureHumidityPressure
High75 °F (May 14, 2:00 PM)100% (May 14, 8:00 AM)30.48 "Hg (May 14, 8:00 AM)
Low45 °F (May 18, 4:00 AM)30% (May 15, 8:00 PM)29.59 "Hg (May 15, 5:00 PM)
Average58 °F85%30.13 "Hg
* Reported May 14 6:00 AM — May 29 6:00 AM, Pelotas, Weather by CustomWeather, © 2016

Note: Actual official high and low records may vary slightly from our data, if they occured in-between our weather recording intervals... More about our weather records

Advertising

Pelotas Weather History for the Previous 24 Hours

Scroll right to see more
 ConditionsComfort  
Time TempWeatherWind HumidityBarometerVisibility
6:00 AM
Sun, May 29
63 °FClear.8 mph94%30.04 "Hg10 mi
5:00 AM63 °FClear.8 mph94%30.04 "Hg10 mi
4:00 AM63 °FClear.9 mph94%30.07 "Hg10 mi
3:00 AM63 °FClear.12 mph94%30.07 "Hg10 mi
2:00 AM59 °FClear.6 mph100%30.09 "Hg10 mi
1:00 AM63 °FClear.6 mph94%30.12 "Hg10 mi
12:00 AM63 °FClear.10 mph94%30.12 "Hg10 mi
11:00 PM
Sat, May 28
63 °FClear.9 mph94%30.15 "Hg10 mi
10:00 PM64 °FClear.10 mph88%30.15 "Hg10 mi
9:00 PM64 °FClear.12 mph88%30.15 "Hg10 mi
8:00 PM66 °FClear.15 mph88%30.15 "Hg10 mi
7:00 PM66 °FClear.17 mph88%30.15 "Hg10 mi
6:00 PM68 °FClear.17 mph78%30.15 "Hg10 mi
5:00 PM70 °FPassing clouds.18 mph73%30.15 "HgN/A
4:00 PM72 °FPassing clouds.16 mph69%30.15 "HgN/A
3:00 PM72 °FPassing clouds.15 mph73%30.15 "HgN/A
2:00 PM72 °FPassing clouds.14 mph73%30.18 "HgN/A
1:00 PM68 °FPassing clouds.12 mph78%30.21 "HgN/A
12:00 PM63 °FScattered clouds.9 mph88%30.24 "HgN/A
11:00 AM61 °FLow clouds.7 mph94%30.27 "Hg4 mi
10:00 AM59 °FLow clouds.7 mph94%30.27 "Hg4 mi
9:00 AM57 °FFog.6 mph100%30.27 "Hg2 mi
8:00 AM57 °FFog.5 mph100%30.27 "Hg2 mi
7:00 AM57 °FFog.2 mph100%30.24 "Hg2 mi
6:00 AM57 °FFog.6 mph100%30.21 "Hg2 mi
Weather by CustomWeather, © 2016

See weather overviewHow to use our weather pages